Regional Weather Roundup
Issued by NWS

Home | Current Version | Previous Version | Text Only | Print | Product List | Glossary On
Versions: 1 2 3 4 5 6 7 8 9 10 11 12 13 14 15 16 17 18 19 20 21 22 23 24 25 26 27 28 29 30 31 32 33 34 35 36 37 38 39 40 41 42 43 44 45 46 47 48 49 50
978
ASUS45 KTFX 281110
RWRMT
MONTANA REGIONAL WEATHER ROUNDUP
NATIONAL WEATHER SERVICE GREAT FALLS MT
500 AM MDT SAT MAY 28 2016

NOTE: "FAIR" INDICATES FEW OR NO CLOUDS BELOW 12000 FEET WITH NO
SIGNIFICANT WEATHER AND/OR OBSTRUCTIONS TO VISIBILITY.

MTZ001>007-043-281200-
WEST OF THE DIVIDE

CITY           SKY/WX    TMP DP  RH WIND       PRES   REMARKS
KALISPELL      CLOUDY    40  36  86 CALM      29.99R
MISSOULA       PTCLDY    38  34  85 NW3       30.04R
BUTTE          CLOUDY    34  33  96 CALM      30.02S
MULLAN PASS    MOCLDY    33  27  78 SW6       30.00F WCI  28
ANACONDA         N/A     36  32  87 SW6       30.01F WCI  31
DEER LODGE       N/A     34  34 100 SW3       30.03R
EUREKA           N/A     45  37  76 S7        29.98S
HAMILTON         N/A     39  32  75 S5        30.03R
LIBBY            N/A     36  36 100 CALM      30.01S
$$

MTZ008-052>055-281200-
SOUTHWEST MONTANA

CITY           SKY/WX    TMP DP  RH WIND       PRES   REMARKS
BOZEMAN        CLOUDY    45  42  89 SW6       29.99R
DILLON         CLOUDY    42  40  92 CALM      29.99S
W YELLOWSTONE  CLOUDY    37  37 100 NE3       30.03R
ENNIS          CLOUDY    39  37  93 NE5       30.05S
$$

MTZ009-010-012-014-046-048-049-054-281200-
EAST SLOPES AND CENTRAL MONTANA

CITY           SKY/WX    TMP DP  RH WIND       PRES   REMARKS
CUT BANK       PTCLDY    35  30  82 N7        29.91S WCI  29
GREAT FALLS    CLEAR     39  33  79 S10       29.95S
MALMSTROM AFB  CLOUDY    45  35  66 SW6       29.95S
HELENA         CLEAR     40  32  73 W8        29.98S
CHOTEAU          N/A     39  30  70 S5        29.94S
$$

MTZ011-013-016-021-045-047-050-051-281200-
NORTH CENTRAL MONTANA

CITY           SKY/WX    TMP DP  RH WIND       PRES   REMARKS
HAVRE          CLOUDY    48  46  93 SW8       29.89R
LEWISTOWN      CLOUDY    48  44  86 SW5       29.95R
N BAR RANCH    CLOUDY    45  41  87 NW5       29.96R
CHINOOK          N/A     52  50  93 CALM      29.89S
$$

MTZ017>020-022>027-061-062-281200-
NORTHEAST MONTANA

CITY           SKY/WX    TMP DP  RH WIND       PRES   REMARKS
GLASGOW        CLOUDY    51  49  92 E10       29.84F
JORDAN           N/A     52  50  93 W10       29.87R
SIDNEY         CLOUDY    55  53  93 N5        29.87R
WOLF POINT     CLOUDY    55  53  93 E12       29.86S
PLENTYWOOD       N/A     52  52 100 E12       29.89S
POPLAR           N/A     54  52  94 NE7       29.87S
$$

MTZ028>42-056>058-281200-
SOUTHCENTRAL AND SOUTHEAST MONTANA

CITY           SKY/WX    TMP DP  RH WIND       PRES   REMARKS
BAKER          CLOUDY    50  46  86 CALM      29.87R
BILLINGS       CLOUDY    50  46  86 W8        29.94R
LIVINGSTON     CLOUDY    45  42  89 W6        29.97R
MILES CITY     PTCLDY    50  46  86 CALM      29.86S
FORSYTH          N/A     52  50  93 W10       29.88R
$$

REGIONAL REPORTS...DAKOTAS

CITY           SKY/WX    TMP DP  RH WIND       PRES   REMARKS
WILLISTON      CLOUDY    56  52  86 E7        29.89R
MINOT          CLOUDY    56  53  90 NE8       29.88F
DICKINSON      CLEAR     43  42  97 N5        29.85R FOG
BEACH          CLOUDY    50  50 100 S3        29.88F
CROSBY         CLOUDY    50  50 100 E12       29.93S
WATFORD CITY   CLOUDY    55  55 100 E7        29.88S
BISMARCK       CLOUDY    56  56 100 NE10      29.85S FOG
GRAND FORKS    CLOUDY    61  57  87 SE5       29.82S
FARGO          CLOUDY    59  56  89 NE5       29.81R
BUFFALO SD       N/A     50  45  83 CALM      29.81R
RAPID CITY     CLEAR     43  41  93 NW8       29.87S
$$

REGIONAL REPORTS...WYOMING/IDAHO/WASHINGTON

CITY           SKY/WX    TMP DP  RH WIND       PRES   REMARKS
GILLETTE       CLOUDY    46  45  96 SW3       29.90F
SHERIDAN       PTCLDY    47  44  90 W13       29.92R
BUFFALO WY     CLEAR     45  41  86 W9        29.92S
CODY           CLOUDY    43  43 100 CALM      29.96S
YELLOWSTONE LA   N/A     31  29  92 CALM      30.06S
IDAHO FALLS    CLEAR     44  31  60 S10       30.00R
SALMON         CLOUDY    43  36  75 CALM      30.00R
BOISE          PTCLDY    45  32  60 N3        30.04R
SPOKANE        PTCLDY    43  32  65 S7        29.99R
$$

REGIONAL REPORTS...ALBERTA

CITY           SKY/WX    TMP DP  RH WIND       PRES   REMARKS
EDMONTON       CLOUDY    46  41  81 W6        29.83R
CALGARY        PTCLDY    37  36  93 VRB2      29.87S
LETHBRIDGE     CLEAR     41  34  75 W14       29.89R
MEDICINE HAT   CLOUDY    48  39  71 SW9       29.85S
WATERTON GATE    N/A     43  28  56 SW16G22     N/A
MILK RIVER       N/A     36  30  80 W8          N/A  WCI  29
$$

REGIONAL REPORTS...SASKATCHEWAN

CITY           SKY/WX    TMP DP  RH WIND       PRES   REMARKS
SWIFT CURRENT  CLOUDY    52  52 100 SE8       29.84S
REGINA         CLOUDY    50  48  93 E10G17    29.93S
SASKATOON      MOCLDY    50  48  93 SE17G24   29.91R
CYPRESS HILLS    N/A     43  36  75 NW5         N/A
VAL MARIE        N/A     52  50  93 E5          N/A
ROCKGLEN         N/A     50  50 100 E10         N/A
ASSINIBOIA       N/A     48  48 100 W7          N/A
$$




USA.gov is the U.S. government's official web portal to all federal, state and local government web resources and services.